Simultaneous Nadir Overpasses (SNOs) Predictions

Prediction of SNOs between GOES-15 and METOP-B Satellite Orbit:

Table of predicted SNOs for the next 14.0 days since TLE Epoch: 7/15/2023
Index Date Time (GOES-15) GOES-15 Lat,Lon METOP-B Lat,Lon Distance(km) Time Diff (sec)
1 07/15/2023 21:50:05 -0.11, 176.45 0.18, 175.15 148.16 80
2 07/18/2023 09:45:53 0.13, 173.94 0.47, 175.43 170.47 80
3 07/19/2023 22:07:28 -0.09, 172.36 0.24, 170.80 177.43 80
4 07/20/2023 21:44:11 -0.14, 171.36 -1.12, 175.75 499.59 80
5 07/22/2023 10:03:15 0.11, 169.85 0.38, 171.09 141.28 80
6 07/23/2023 22:24:50 -0.07, 168.28 0.32, 166.46 206.48 80
7 07/24/2023 22:01:34 -0.11, 167.28 -1.03, 171.41 470.49 80
8 07/26/2023 10:20:37 0.08, 165.77 0.31, 166.75 111.97 80
9 07/27/2023 22:42:11 -0.03, 164.20 0.45, 162.13 236.32 80
10 07/28/2023 22:18:55 -0.08, 163.21 -0.92, 167.07 440.15 80
